Flag for India Weather past 2 weeks in Allahabad, Uttar Pradesh, India

Now
82 °F

Scattered clouds.


Feels Like: 91 °F
Forecast: 80 / 91 °F
Wind: 6 mph from Northeast

Location: Varanasi / Babatpur

Current Time: Aug 3, 2015 at 8:56:02 AM

Latest Report: Aug 3, 2015 at 7:00 AM


Visibility: 2 mi

Pressure: 29.62 "Hg

Humidity: 84%

Dew point: 77 °F

Location of AllahabadLocation

Historic Weather in Allahabad — Graph

°F

Allahabad temperature yesterday

Maximum temperature yesterday: 93 °F (at 2:00 PM)
Minimum temperature yesterday: 79 °F (at 5:00 AM)
Average temperature yesterday: 86 °F

Past Weeks' High & Low Weather Summary

 TemperatureHumidityPressure
High99 °F (Jul 27, 4:00 PM)100% (Jul 23, 11:00 PM)29.71 "Hg (Jul 23, 11:00 PM)
Low77 °F (Jul 26, 6:00 AM)45% (Jul 23, 4:00 AM)29.39 "Hg (Jul 19, 4:00 PM)
Average87 °F76%29.57 "Hg
* Reported Jul 19 8:00 AM — Aug 3 7:00 AM, Allahabad, Weather by CustomWeather, © 2015

Note: Actual official high and low records may vary slightly from our data, if they occured in-between our weather recording intervals... More about our weather records

Advertising

Allahabad weather history for previous 24 hours

 ConditionsComfort  
Time TempWeatherWind HumidityBarometerVisibility
7:00 AM
Mon, Aug 3
82 °FScattered clouds.6 mph84%29.62 "Hg2 mi
6:00 AM82 °FScattered clouds.8 mph84%29.59 "Hg2 mi
12:00 AM81 °FPartly cloudy.5 mph89%29.59 "Hg3 mi
11:00 PM
Sun, Aug 2
82 °FPartly cloudy.No wind84%29.62 "Hg3 mi
9:00 PM82 °FPartly cloudy.No wind84%29.62 "Hg3 mi
7:00 PM84 °FScattered clouds.3 mph79%29.62 "Hg4 mi
6:00 PM84 °FScattered clouds.6 mph79%29.59 "Hg4 mi
5:00 PM90 °FScattered clouds.16 mph71%29.59 "Hg4 mi
4:00 PM91 °FScattered clouds.10 mph63%29.59 "Hg4 mi
3:00 PM91 °FScattered clouds.7 mph63%29.59 "Hg4 mi
2:00 PM93 °FScattered clouds.7 mph59%29.62 "Hg4 mi
1:00 PM91 °FScattered clouds.8 mph63%29.68 "Hg4 mi
12:00 PM91 °FScattered clouds.8 mph63%29.68 "Hg4 mi
11:00 AM90 °FScattered clouds.6 mph67%29.71 "Hg4 mi
10:00 AM88 °FBroken clouds.3 mph70%29.71 "Hg4 mi
9:00 AM86 °FScattered clouds.6 mph79%29.71 "Hg3 mi
8:00 AM82 °FScattered clouds.No wind79%29.71 "Hg3 mi
Weather by CustomWeather, © 2015

See weather overviewHow to use our weather pages